User: anonymous   Login
Location: Bailleul
(50.3375°N, 2.8513°E)
Time: 20:24:38
(UTC+00:00)
Language:

DMSP 5D-2 F13 DEB - Orbit

View from above orbital plane
View from above orbital plane
View from above satellite
View from above satellite

Ground track
Ground track

The orbit data is extracted from the following two-line orbital elements,

1 40509U 95015CV  22020.47257682  .00000189  00000-0  10875-3 0  9997
2 40509  98.7332  40.7007 0023593 306.8569  53.0444 14.20360838354095
Epoch (UTC): 20 January 2022 11:20:30
Eccentricity: 0.0023593
inclination: 98.7332°
perigee height: 807 km
apogee height: 841 km
right ascension of ascending node: 40.7007°
argument of perigee: 306.8569°
revolutions per day: 14.20360838
mean anomaly at epoch: 53.0444°
orbit number at epoch: 35409

The dashed part of the orbit path shows where the satellite is in the earth's shadow,  

DLR